Sault Sainte Marie, MI

6:59 PM EST on February 13, 2016 (GMT -0500)
Sault Ste Marie Municipal / Sanderson Field

Weather History for KANJ - July, 2013

Change the Weather History Date:

Friday, July 26, 2013

  Actual Average Record
Temperature  
Mean Temperature 62 °F 66 °F  
Max Temperature 66 °F 77 °F 92 °F (1955)
Min Temperature 58 °F 55 °F 40 °F (1975)
Degree Days  
Heating Degree Days 3 2  
Month to date heating degree days 31 62  
Since 1 June heating degree days 177 242  
Since 1 July heating degree days 31 62  
Cooling Degree Days 0 3  
Month to date cooling degree days 115 69  
Year to date cooling degree days 163 104  
Since 1 June cooling degree days 154 99  
Growing Degree Days 13 (Base 50)    
Moisture  
Dew Point 60 °F    
Average Humidity 86    
Maximum Humidity 93    
Minimum Humidity 78    
Precipitation  
Precipitation 2.38 in 0.10 in 2.38 in (2013)
Month to date precipitation 4.75 2.35  
Year to date precipitation 22.26 15.49  
Sea Level Pressure  
Sea Level Pressure 29.89 in    
Wind  
Wind Speed 6 mph (SE)    
Max Wind Speed 17 mph    
Max Gust Speed 22 mph    
Visibility 7 miles    
Events Fog , Rain , Thunderstorm    
T = Trace of Precipitation, MM = Missing Value Source: NWS Daily Summary

Daily Weather History Graph

Daily Weather History Graph

Search for Another Location

Airport or City:

Trip Planner

Search our weather history database for the weather conditions in past years. The results will help you decide how hot, cold, wet, or windy it might be!

Date:

Astronomy

Jul. 26, 2013 Rise Set
Actual Time 6:11 AM EDT 9:15 PM EDT
Civil Twilight 5:35 AM EDT 9:51 PM EDT
Nautical Twilight 4:49 AM EDT 10:37 PM EDT
Astronomical Twilight 3:52 AM EDT 11:33 PM EDT
Moon 11:06 PM EDT (7/26) 11:07 AM EDT (7/26)
Length of Visible Light 16h 15m
Length of Day
15h 03m
Waning Gibbous, 80% of the Moon is Illuminated
Jul 26
Waning Gibbous
Jul 29
Last Quarter
Aug 6
New
Aug 14
First Quarter
Aug 20
Full

Hourly Weather History & Observations

Time (EDT) Temp. Dew Point Humidity Pressure Visibility Wind Dir Wind Speed Gust Speed Precip Events Conditions
12:55 AM 62.1 °F 55.0 °F 78% 29.97 in 10.0 mi East 9.2 mph - N/A   Partly Cloudy
1:55 AM 62.1 °F 55.9 °F 80% 29.96 in 10.0 mi ESE 4.6 mph - N/A   Partly Cloudy
2:55 AM 63.0 °F 57.9 °F 84% 29.98 in 7.0 mi SSW 11.5 mph - 0.01 in Rain Light Rain
3:55 AM 61.0 °F 57.9 °F 90% 29.96 in 10.0 mi South 3.5 mph - 0.07 in Rain Light Rain
4:55 AM 60.1 °F 57.0 °F 90% 29.95 in 10.0 mi ESE 6.9 mph - 0.00 in   Partly Cloudy
5:55 AM 61.0 °F 57.9 °F 90% 29.94 in 10.0 mi ESE 8.1 mph - 0.00 in   Mostly Cloudy
6:55 AM 60.1 °F 57.0 °F 90% 29.94 in 10.0 mi ESE 6.9 mph - N/A   Overcast
7:22 AM 61.0 °F 57.0 °F 87% 29.95 in 10.0 mi SE 6.9 mph - N/A   Overcast
7:55 AM 61.0 °F 57.0 °F 87% 29.95 in 10.0 mi ESE 5.8 mph - N/A   Overcast
8:55 AM 62.1 °F 57.9 °F 86% 29.95 in 10.0 mi East 3.5 mph - N/A   Overcast
9:36 AM 62.1 °F 57.0 °F 84% 29.96 in 10.0 mi East 5.8 mph - N/A   Overcast
9:46 AM 63.0 °F 57.9 °F 84% 29.96 in 10.0 mi ESE 4.6 mph - N/A   Overcast
9:55 AM 63.0 °F 57.9 °F 84% 29.95 in 10.0 mi ESE 6.9 mph - N/A   Overcast
10:55 AM 64.9 °F 59.0 °F 81% 29.94 in 10.0 mi East 8.1 mph - N/A   Overcast
11:55 AM 64.9 °F 60.1 °F 84% 29.94 in 10.0 mi East 3.5 mph - N/A   Overcast
12:43 PM 66.0 °F 60.1 °F 81% 29.94 in 9.0 mi SE 5.8 mph - 0.00 in Rain , Thunderstorm Light Rain
12:55 PM 64.9 °F 60.1 °F 84% 29.92 in 3.0 mi ESE 6.9 mph - 0.01 in Rain , Thunderstorm Rain
1:03 PM 64.0 °F 61.0 °F 90% 29.92 in 3.0 mi Variable 5.8 mph - 0.02 in Rain Light Rain
1:37 PM 64.9 °F 62.1 °F 90% 29.92 in 9.0 mi ESE 6.9 mph - 0.04 in   Overcast
1:55 PM 64.0 °F 62.1 °F 93% 29.91 in 7.0 mi ESE 6.9 mph - 0.04 in Rain Light Rain
2:02 PM 64.0 °F 62.1 °F 93% 29.91 in 4.0 mi ESE 9.2 mph - 0.01 in Rain , Thunderstorm Light Rain
2:24 PM 64.0 °F 62.1 °F 93% 29.92 in 10.0 mi ESE 6.9 mph - 0.01 in Thunderstorm Overcast
2:31 PM 64.0 °F 62.1 °F 93% 29.92 in 10.0 mi SE 8.1 mph - 0.01 in   Overcast
2:46 PM 64.0 °F 62.1 °F 93% 29.91 in 8.0 mi SE 8.1 mph - 0.01 in   Overcast
2:55 PM 64.0 °F 62.1 °F 93% 29.90 in 8.0 mi ESE 8.1 mph - 0.01 in   Overcast
3:04 PM 64.9 °F 62.1 °F 90% 29.89 in 8.0 mi ESE 5.8 mph - N/A   Overcast
3:52 PM 64.4 °F 62.6 °F 94% 29.85 in 7.0 mi East 9.2 mph - N/A Thunderstorm Overcast
3:55 PM 64.9 °F 62.1 °F 90% 29.85 in 7.0 mi East 8.1 mph - N/A Thunderstorm Overcast
4:09 PM 64.0 °F 62.1 °F 93% 29.83 in 6.0 mi ENE 8.1 mph - 0.00 in Rain , Thunderstorm Light Thunderstorms and Rain
4:23 PM 64.0 °F 62.1 °F 93% 29.89 in 1.8 mi Variable 6.9 mph - 0.06 in Rain , Thunderstorm Heavy Thunderstorms and Rain
4:34 PM 62.1 °F 61.0 °F 96% 29.86 in 0.5 mi NW 12.7 mph - 0.58 in Fog , Rain , Thunderstorm Heavy Thunderstorms and Rain
4:51 PM 62.6 °F 60.8 °F 94% 29.86 in 2.0 mi NE 6.9 mph - 1.07 in Rain , Thunderstorm Heavy Thunderstorms and Rain
4:55 PM 62.1 °F 60.1 °F 93% 29.86 in 2.5 mi NE 5.8 mph - 1.09 in Rain , Thunderstorm Thunderstorms and Rain
5:12 PM 62.1 °F 61.0 °F 96% 29.87 in 1.8 mi SW 10.4 mph - 0.07 in Rain Heavy Rain
5:29 PM 62.1 °F 61.0 °F 96% 29.85 in 2.0 mi South 5.8 mph - 0.15 in Rain Rain
5:37 PM 62.1 °F 61.0 °F 96% 29.85 in 3.0 mi South 4.6 mph - 0.16 in Rain Rain
5:39 PM 62.1 °F 61.0 °F 96% 29.85 in 3.0 mi Calm Calm - 0.17 in Rain , Thunderstorm Rain
5:55 PM 62.1 °F 61.0 °F 96% 29.84 in 4.0 mi East 3.5 mph - 0.21 in Rain Light Rain
6:09 PM 62.1 °F 61.0 °F 96% 29.83 in 2.0 mi East 5.8 mph - 0.06 in Rain , Thunderstorm Thunderstorms and Rain
6:21 PM 62.1 °F 61.0 °F 96% 29.83 in 1.5 mi Calm Calm - 0.14 in Rain , Thunderstorm Heavy Thunderstorms and Rain
6:32 PM 62.1 °F 61.0 °F 96% 29.85 in 0.5 mi South 8.1 mph - 0.36 in Fog , Rain , Thunderstorm Heavy Thunderstorms and Rain
6:51 PM 62.6 °F 60.8 °F 94% 29.83 in 1.2 mi ENE 4.6 mph - 0.83 in Rain , Thunderstorm Heavy Thunderstorms and Rain
6:55 PM 62.1 °F 60.1 °F 93% 29.83 in 2.5 mi Calm Calm - 0.84 in Rain , Thunderstorm Thunderstorms and Rain
6:57 PM 62.1 °F 61.0 °F 96% 29.84 in 3.0 mi Calm Calm - 0.01 in Rain Rain
7:18 PM 62.1 °F 60.1 °F 93% 29.84 in 2.5 mi ESE 3.5 mph - 0.05 in Rain Heavy Rain
7:32 PM 62.1 °F 60.1 °F 93% 29.82 in 5.0 mi SE 3.5 mph - 0.08 in Rain Light Rain
7:51 PM 62.6 °F 60.8 °F 94% 29.82 in 6.0 mi SE 3.5 mph - 0.09 in Rain Light Rain
7:55 PM 62.1 °F 61.0 °F 96% 29.82 in 9.0 mi SE 3.5 mph - 0.09 in Rain Light Rain
8:26 PM 62.1 °F 60.1 °F 93% 29.83 in 10.0 mi SSE 8.1 mph - 0.00 in Rain Light Rain
8:55 PM 62.1 °F 60.1 °F 93% 29.82 in 10.0 mi South 11.5 mph - 0.00 in   Overcast
9:55 PM 62.1 °F 60.1 °F 93% 29.82 in 10.0 mi South 5.8 mph - 0.01 in   Overcast
10:55 PM 62.1 °F 59.0 °F 90% 29.82 in 10.0 mi SSW 6.9 mph - 0.00 in   Mostly Cloudy
11:55 PM 61.0 °F 57.9 °F 90% 29.84 in 10.0 mi WSW 9.2 mph - 0.00 in   Overcast